| time (UTC) | temp C | wind direction | speed KPH | gust KPH | rain 1hr cm | rain 24hr cm | rain mn cm | humidity % | barometer mb |
| 20260507123634 | 6 | 330 | 6.4 | 14.5 | 0.00 | 0.00 | 0.00 | 10 | 1003.9 |
| 20260507123603 | 6 | 330 | 6.4 | 14.5 | 0.00 | 0.00 | 0.00 | 10 | 1003.9 |
| 20260507123448 | 6 | 338 | 6.4 | 20.9 | 0.00 | 0.00 | 0.00 | 10 | 1003.9 |
| 20260507122948 | 6 | 341 | 9.7 | 20.9 | 0.00 | 0.00 | 0.00 | 10 | 1003.9 |
| 20260507122705 | 6 | 346 | 6.4 | 20.9 | 0.00 | 0.00 | 0.00 | 10 | 1003.9 |
| 20260507122448 | 7 | 349 | 8.0 | 20.9 | 0.00 | 0.00 | 0.00 | 10 | 1003.8 |
| 20260507121948 | 6 | 340 | 9.7 | 17.7 | 0.00 | 0.00 | 0.00 | 10 | 1003.9 |
| 20260507121803 | 6 | 333 | 12.9 | 17.7 | 0.00 | 0.00 | 0.00 | 10 | 1003.8 |
| 20260507121634 | 6 | 327 | 9.7 | 17.7 | 0.00 | 0.00 | 0.00 | 10 | 1003.9 |
| 20260507121448 | 6 | 323 | 6.4 | 17.7 | 0.00 | 0.00 | 0.00 | 10 | 1003.9 |
| 20260507120949 | 6 | 336 | 3.2 | 16.1 | 0.00 | 0.00 | 0.00 | 10 | 1003.8 |
| 20260507120903 | 6 | 336 | 3.2 | 16.1 | 0.00 | 0.00 | 0.00 | 10 | 1003.8 |
| 20260507120449 | 6 | 345 | 6.4 | 17.7 | 0.00 | 0.00 | 0.00 | 10 | 1003.8 |
| 20260507120004 | 6 | 5 | 6.4 | 24.1 | 0.00 | 0.00 | 0.00 | 10 | 1003.8 |
| 20260507115949 | 6 | 5 | 9.7 | 24.1 | 0.00 | 0.00 | 0.00 | 10 | 1003.8 |
| 20260507115635 | 6 | 360 | 9.7 | 24.1 | 0.00 | 0.00 | 0.00 | 10 | 1003.8 |
| 20260507115449 | 6 | 356 | 8.0 | 24.1 | 0.00 | 0.00 | 0.00 | 10 | 1003.8 |
| 20260507115403 | 6 | 356 | 8.0 | 24.1 | 0.00 | 0.00 | 0.00 | 10 | 1003.8 |
| 20260507114949 | 6 | 344 | 12.9 | 22.5 | 0.00 | 0.00 | 0.00 | 10 | 1003.7 |
| 20260507114503 | 6 | 359 | 12.9 | 17.7 | 0.00 | 0.00 | 0.00 | 10 | 1003.7 |
| 20260507114449 | 6 | 358 | 8.0 | 17.7 | 0.00 | 0.00 | 0.00 | 10 | 1003.7 |
| 20260507113949 | 6 | 360 | 12.9 | 17.7 | 0.00 | 0.00 | 0.00 | 10 | 1003.6 |
| 20260507113635 | 6 | 340 | 11.3 | 17.7 | 0.00 | 0.00 | 0.00 | 10 | 1003.6 |
| 20260507113603 | 6 | 340 | 11.3 | 17.7 | 0.00 | 0.00 | 0.00 | 10 | 1003.6 |
| 20260507113449 | 6 | 342 | 6.4 | 19.3 | 0.00 | 0.00 | 0.00 | 10 | 1003.6 |
| 20260507112949 | 6 | 332 | 9.7 | 19.3 | 0.00 | 0.00 | 0.00 | 10 | 1003.6 |
| 20260507112703 | 6 | 343 | 8.0 | 19.3 | 0.00 | 0.00 | 0.00 | 10 | 1003.5 |
| 20260507112449 | 6 | 348 | 8.0 | 17.7 | 0.00 | 0.00 | 0.00 | 10 | 1003.5 |
| 20260507111949 | 6 | 360 | 6.4 | 17.7 | 0.00 | 0.00 | 0.00 | 10 | 1003.4 |
| 20260507111803 | 6 | 7 | 11.3 | 17.7 | 0.00 | 0.00 | 0.00 | 10 | 1003.4 |
| 20260507111635 | 6 | 2 | 9.7 | 16.1 | 0.00 | 0.00 | 0.00 | 10 | 1003.4 |
| 20260507111449 | 6 | 349 | 8.0 | 17.7 | 0.00 | 0.00 | 0.00 | 10 | 1003.5 |
| 20260507110949 | 6 | 349 | 6.4 | 17.7 | 0.00 | 0.00 | 0.00 | 10 | 1003.5 |
| 20260507110904 | 6 | 349 | 6.4 | 17.7 | 0.00 | 0.00 | 0.00 | 10 | 1003.5 |
| 20260507110449 | 6 | 340 | 6.4 | 16.1 | 0.00 | 0.00 | 0.00 | 10 | 1003.4 |
| 20260507110003 | 6 | 342 | 8.0 | 17.7 | 0.00 | 0.00 | 0.00 | 10 | 1003.4 |
| 20260507105949 | 6 | 333 | 11.3 | 17.7 | 0.00 | 0.00 | 0.00 | 10 | 1003.3 |
| 20260507105635 | 6 | 335 | 11.3 | 19.3 | 0.00 | 0.00 | 0.00 | 10 | 1003.4 |
| 20260507105449 | 6 | 349 | 6.4 | 20.9 | 0.00 | 0.00 | 0.00 | 10 | 1003.4 |
| 20260507105403 | 6 | 349 | 6.4 | 20.9 | 0.00 | 0.00 | 0.00 | 10 | 1003.4 |
| 20260507104949 | 6 | 351 | 8.0 | 20.9 | 0.00 | 0.00 | 0.00 | 10 | 1003.3 |
| 20260507104504 | 6 | 353 | 12.9 | 19.3 | 0.00 | 0.00 | 0.00 | 10 | 1003.3 |
| 20260507104449 | 6 | 346 | 8.0 | 19.3 | 0.00 | 0.00 | 0.00 | 10 | 1003.3 |
| 20260507103948 | 6 | 338 | 6.4 | 17.7 | 0.00 | 0.00 | 0.00 | 10 | 1003.2 |
| 20260507103634 | 6 | 334 | 9.7 | 17.7 | 0.00 | 0.00 | 0.00 | 10 | 1003.2 |
| 20260507103603 | 6 | 335 | 9.7 | 17.7 | 0.00 | 0.00 | 0.00 | 10 | 1003.2 |
| 20260507103449 | 6 | 335 | 9.7 | 17.7 | 0.00 | 0.00 | 0.00 | 10 | 1003.3 |
| 20260507102949 | 5 | 333 | 6.4 | 14.5 | 0.00 | 0.00 | 0.00 | 10 | 1003.2 |
| 20260507102703 | 6 | 330 | 6.4 | 14.5 | 0.00 | 0.00 | 0.00 | 10 | 1003.1 |
| 20260507102449 | 6 | 344 | 6.4 | 17.7 | 0.00 | 0.00 | 0.00 | 10 | 1003.1 |
| 20260507101949 | 6 | 351 | 4.8 | 17.7 | 0.00 | 0.00 | 0.00 | 10 | 1003.0 |
| 20260507101803 | 6 | 353 | 6.4 | 17.7 | 0.00 | 0.00 | 0.00 | 10 | 1002.9 |
| 20260507101635 | 6 | 348 | 6.4 | 17.7 | 0.00 | 0.00 | 0.00 | 10 | 1003.0 |
| 20260507101449 | 6 | 337 | 4.8 | 17.7 | 0.00 | 0.00 | 0.00 | 10 | 1002.9 |
| 20260507100949 | 6 | 343 | 11.3 | 17.7 | 0.00 | 0.00 | 0.00 | 10 | 1002.9 |
| 20260507100903 | 6 | 343 | 11.3 | 17.7 | 0.00 | 0.00 | 0.00 | 10 | 1002.9 |
| 20260507100449 | 6 | 350 | 9.7 | 19.3 | 0.00 | 0.00 | 0.00 | 10 | 1002.6 |
| 20260507100005 | 6 | 351 | 6.4 | 19.3 | 0.00 | 0.00 | 0.00 | 10 | 1002.8 |
| 20260507095949 | 6 | 353 | 9.7 | 19.3 | 0.00 | 0.00 | 0.00 | 10 | 1002.8 |
| 20260507095635 | 6 | 352 | 9.7 | 16.1 | 0.00 | 0.00 | 0.00 | 10 | 1002.8 |
| 20260507095449 | 6 | 358 | 11.3 | 16.1 | 0.00 | 0.00 | 0.00 | 10 | 1002.8 |
| 20260507095403 | 6 | 358 | 11.3 | 16.1 | 0.00 | 0.00 | 0.00 | 10 | 1002.8 |
| 20260507094949 | 6 | 357 | 4.8 | 14.5 | 0.00 | 0.00 | 0.00 | 10 | 1002.5 |
| 20260507094503 | 6 | 349 | 8.0 | 16.1 | 0.00 | 0.00 | 0.00 | 10 | 1002.4 |
| 20260507094449 | 6 | 343 | 6.4 | 16.1 | 0.00 | 0.00 | 0.00 | 10 | 1002.5 |
| 20260507093948 | 5 | 2 | 6.4 | 19.3 | 0.00 | 0.00 | 0.00 | 10 | 1002.4 |
| 20260507093634 | 6 | 1 | 6.4 | 19.3 | 0.00 | 0.00 | 0.00 | 10 | 1002.5 |
| 20260507093603 | 6 | 3 | 6.4 | 19.3 | 0.00 | 0.00 | 0.00 | 10 | 1002.5 |
| 20260507093448 | 5 | 359 | 6.4 | 20.9 | 0.00 | 0.00 | 0.00 | 10 | 1002.6 |
| 20260507092949 | 6 | 350 | 4.8 | 20.9 | 0.00 | 0.00 | 0.00 | 10 | 1002.6 |
| 20260507092703 | 5 | 341 | 9.7 | 20.9 | 0.00 | 0.00 | 0.00 | 10 | 1002.5 |
| 20260507092448 | 5 | 348 | 12.9 | 20.9 | 0.00 | 0.00 | 0.00 | 10 | 1002.4 |
| 20260507091948 | 5 | 1 | 8.0 | 20.9 | 0.00 | 0.00 | 0.00 | 10 | 1002.4 |
| 20260507091803 | 5 | 5 | 9.7 | 20.9 | 0.00 | 0.00 | 0.00 | 10 | 1002.3 |
| 20260507091634 | 5 | 5 | 6.4 | 20.9 | 0.00 | 0.00 | 0.00 | 10 | 1002.2 |
| 20260507091448 | 5 | 354 | 6.4 | 20.9 | 0.00 | 0.00 | 0.00 | 10 | 1002.2 |
| 20260507090948 | 5 | 325 | 6.4 | 17.7 | 0.00 | 0.00 | 0.00 | 10 | 1002.0 |
| 20260507090903 | 5 | 325 | 6.4 | 17.7 | 0.00 | 0.00 | 0.00 | 10 | 1002.0 |
| 20260507090448 | 5 | 344 | 9.7 | 17.7 | 0.00 | 0.00 | 0.00 | 10 | 1002.1 |
| 20260507090003 | 5 | 338 | 12.9 | 17.7 | 0.00 | 0.00 | 0.00 | 10 | 1002.1 |
| 20260507085948 | 5 | 341 | 9.7 | 19.3 | 0.00 | 0.00 | 0.00 | 10 | 1001.9 |
| 20260507085634 | 5 | 331 | 6.4 | 19.3 | 0.00 | 0.00 | 0.00 | 10 | 1001.9 |
| 20260507085448 | 5 | 314 | 11.3 | 19.3 | 0.00 | 0.00 | 0.00 | 10 | 1001.8 |
| 20260507085403 | 5 | 314 | 11.3 | 19.3 | 0.00 | 0.00 | 0.00 | 10 | 1001.8 |
| 20260507084948 | 4 | 324 | 14.5 | 17.7 | 0.00 | 0.00 | 0.00 | 10 | 1001.7 |
| 20260507084503 | 4 | 314 | 8.0 | 17.7 | 0.00 | 0.00 | 0.00 | 10 | 1001.6 |
| 20260507084448 | 4 | 320 | 6.4 | 17.7 | 0.00 | 0.00 | 0.00 | 10 | 1001.6 |
| 20260507083948 | 4 | 322 | 6.4 | 17.7 | 0.00 | 0.00 | 0.00 | 10 | 1001.5 |
| 20260507083634 | 4 | 339 | 6.4 | 17.7 | 0.00 | 0.00 | 0.00 | 10 | 1001.4 |
| 20260507083603 | 4 | 340 | 6.4 | 17.7 | 0.00 | 0.00 | 0.00 | 10 | 1001.4 |
| 20260507083448 | 3 | 342 | 8.0 | 17.7 | 0.00 | 0.00 | 0.00 | 10 | 1001.5 |
| 20260507082948 | 3 | 348 | 9.7 | 20.9 | 0.00 | 0.00 | 0.00 | 10 | 1001.5 |
| 20260507082703 | 3 | 355 | 8.0 | 20.9 | 0.00 | 0.00 | 0.00 | 10 | 1001.5 |
| 20260507082348 | 3 | 3 | 8.0 | 20.9 | 0.00 | 0.00 | 0.00 | 10 | 1001.6 |
| 20260507081848 | 3 | 15 | 6.4 | 17.7 | 0.00 | 0.00 | 0.00 | 10 | 1001.6 |
| 20260507081803 | 3 | 15 | 6.4 | 17.7 | 0.00 | 0.00 | 0.00 | 10 | 1001.6 |
| 20260507081634 | 3 | 6 | 11.3 | 17.7 | 0.00 | 0.00 | 0.00 | 10 | 1001.5 |
| 20260507081348 | 3 | 360 | 6.4 | 17.7 | 0.00 | 0.00 | 0.00 | 10 | 1001.5 |
| 20260507080903 | 3 | 355 | 8.0 | 12.9 | 0.00 | 0.00 | 0.00 | 10 | 1001.7 |
| 20260507080847 | 3 | 351 | 8.0 | 12.9 | 0.00 | 0.00 | 0.00 | 10 | 1001.7 |
| 20260507080347 | 3 | 1 | 6.4 | 16.1 | 0.00 | 0.00 | 0.00 | 10 | 1001.7 |
| 20260507080003 | 3 | 353 | 6.4 | 17.7 | 0.00 | 0.00 | 0.00 | 10 | 1001.8 |
| 20260507075847 | 3 | 347 | 6.4 | 17.7 | 0.00 | 0.00 | 0.00 | 10 | 1001.8 |
| 20260507075635 | 3 | 341 | 11.3 | 17.7 | 0.00 | 0.00 | 0.00 | 10 | 1001.9 |
| 20260507075403 | 3 | 330 | 9.7 | 17.7 | 0.00 | 0.00 | 0.00 | 10 | 1002.0 |
| 20260507075347 | 3 | 326 | 11.3 | 17.7 | 0.00 | 0.00 | 0.00 | 10 | 1002.0 |
| 20260507074847 | 3 | 330 | 12.9 | 17.7 | 0.00 | 0.00 | 0.00 | 10 | 1002.1 |
| 20260507074503 | 3 | 344 | 8.0 | 17.7 | 0.00 | 0.00 | 0.00 | 10 | 1002.2 |
| 20260507074347 | 2 | 337 | 6.4 | 22.5 | 0.00 | 0.00 | 0.00 | 10 | 1002.2 |
| 20260507073847 | 2 | 324 | 8.0 | 24.1 | 0.00 | 0.00 | 0.00 | 10 | 1002.3 |
| 20260507073635 | 2 | 329 | 8.0 | 24.1 | 0.00 | 0.00 | 0.00 | 10 | 1002.4 |
| 20260507073603 | 2 | 329 | 8.0 | 24.1 | 0.00 | 0.00 | 0.00 | 10 | 1002.4 |
| 20260507073347 | 2 | 347 | 8.0 | 24.1 | 0.00 | 0.00 | 0.00 | 10 | 1002.3 |
| 20260507072847 | 2 | 347 | 12.9 | 24.1 | 0.00 | 0.00 | 0.00 | 10 | 1002.3 |
| 20260507072703 | 2 | 343 | 8.0 | 19.3 | 0.00 | 0.00 | 0.00 | 10 | 1002.4 |
| 20260507072347 | 2 | 331 | 6.4 | 19.3 | 0.00 | 0.00 | 0.00 | 10 | 1002.5 |
| 20260507071847 | 2 | 342 | 12.9 | 19.3 | 0.00 | 0.00 | 0.00 | 10 | 1002.6 |
| 20260507071803 | 2 | 342 | 12.9 | 19.3 | 0.00 | 0.00 | 0.00 | 10 | 1002.6 |
| 20260507071635 | 2 | 350 | 9.7 | 17.7 | 0.00 | 0.00 | 0.00 | 10 | 1002.7 |
| 20260507071347 | 2 | 358 | 6.4 | 17.7 | 0.00 | 0.00 | 0.00 | 10 | 1002.8 |
| 20260507070903 | 2 | 355 | 6.4 | 17.7 | 0.00 | 0.00 | 0.00 | 10 | 1002.9 |
| 20260507070847 | 2 | 359 | 6.4 | 17.7 | 0.00 | 0.00 | 0.00 | 10 | 1002.6 |
| 20260507070347 | 2 | 2 | 9.7 | 17.7 | 0.00 | 0.00 | 0.00 | 10 | 1002.7 |
| 20260507070006 | 2 | 338 | 9.7 | 17.7 | 0.00 | 0.00 | 0.00 | 10 | 1002.8 |
| 20260507065847 | 1 | 326 | 3.2 | 12.9 | 0.00 | 0.00 | 0.00 | 10 | 1002.8 |
| 20260507065635 | 1 | 319 | 6.4 | 12.9 | 0.00 | 0.00 | 0.00 | 10 | 1002.7 |
| 20260507065403 | 1 | 324 | 3.2 | 12.9 | 0.00 | 0.00 | 0.00 | 10 | 1002.7 |
| 20260507065347 | 1 | 322 | 6.4 | 12.9 | 0.00 | 0.00 | 0.00 | 10 | 1002.7 |
| 20260507064735 | 1 | 330 | 6.4 | 12.9 | 0.00 | 0.00 | 0.00 | 10 | 1002.8 |
| 20260507064503 | 1 | 333 | 4.8 | 12.9 | 0.00 | 0.00 | 0.00 | 10 | 1002.7 |
| 20260507064235 | 1 | 336 | 3.2 | 12.9 | 0.00 | 0.00 | 0.00 | 10 | 1002.7 |
| 20260507063735 | 1 | 334 | 3.2 | 11.3 | 0.00 | 0.00 | 0.00 | 10 | 1002.6 |
| 20260507063635 | 1 | 337 | 3.2 | 11.3 | 0.00 | 0.00 | 0.00 | 10 | 1002.6 |
| 20260507063603 | 1 | 337 | 3.2 | 11.3 | 0.00 | 0.00 | 0.00 | 10 | 1002.6 |
| 20260507063235 | 1 | 340 | 3.2 | 12.9 | 0.00 | 0.00 | 0.00 | 10 | 1002.7 |
| 20260507062734 | 1 | 335 | 3.2 | 14.5 | 0.00 | 0.00 | 0.00 | 10 | 1002.6 |
| 20260507062704 | 1 | 335 | 3.2 | 14.5 | 0.00 | 0.00 | 0.00 | 10 | 1002.6 |
| 20260507062234 | 0 | 318 | 3.2 | 14.5 | 0.00 | 0.00 | 0.00 | 10 | 1002.6 |
| 20260507061803 | 0 | 341 | 4.8 | 14.5 | 0.00 | 0.00 | 0.00 | 10 | 1002.6 |
| 20260507061734 | 0 | 349 | 6.4 | 14.5 | 0.00 | 0.00 | 0.00 | 10 | 1002.7 |
| 20260507061634 | 0 | 355 | 4.8 | 12.9 | 0.00 | 0.00 | 0.00 | 11 | 1002.6 |
| 20260507061234 | 0 | 12 | 8.0 | 12.9 | 0.00 | 0.00 | 0.00 | 13 | 1002.8 |
| 20260507060903 | 0 | 15 | 6.4 | 12.9 | 0.00 | 0.00 | 0.00 | 16 | 1002.6 |
| 20260507060734 | 0 | 354 | 3.2 | 8.0 | 0.00 | 0.00 | 0.00 | 24 | 1002.8 |
| 20260507060234 | 0 | 357 | 3.2 | 8.0 | 0.00 | 0.00 | 0.00 | 24 | 1002.5 |
| 20260507060003 | 0 | 3 | 3.2 | 8.0 | 0.00 | 0.00 | 0.00 | 24 | 1002.5 |
| 20260507055734 | 0 | 22 | 4.8 | 8.0 | 0.00 | 0.00 | 0.00 | 26 | 1002.6 |
| 20260507055634 | 0 | 33 | 4.8 | 8.0 | 0.00 | 0.00 | 0.00 | 27 | 1002.6 |
| 20260507055403 | 0 | 32 | 3.2 | 8.0 | 0.00 | 0.00 | 0.00 | 29 | 1002.5 |
| 20260507055234 | 0 | 29 | 3.2 | 6.4 | 0.00 | 0.00 | 0.00 | 30 | 1002.5 |
| 20260507054734 | 0 | 351 | 3.2 | 6.4 | 0.00 | 0.00 | 0.00 | 31 | 1002.5 |
| 20260507054503 | 0 | 277 | 3.2 | 6.4 | 0.00 | 0.00 | 0.00 | 33 | 1002.4 |
| 20260507054234 | 0 | 216 | 0.0 | 6.4 | 0.00 | 0.00 | 0.00 | 34 | 1002.5 |
| 20260507053734 | 0 | 211 | 3.2 | 6.4 | 0.00 | 0.00 | 0.00 | 37 | 1002.4 |
| 20260507053634 | 0 | 211 | 1.6 | 3.2 | 0.00 | 0.00 | 0.00 | 37 | 1002.4 |
| 20260507053604 | 0 | 211 | 1.6 | 3.2 | 0.00 | 0.00 | 0.00 | 37 | 1002.4 |
| 20260507053234 | 0 | 284 | 0.0 | 6.4 | 0.00 | 0.00 | 0.00 | 39 | 1002.5 |
| 20260507052734 | 0 | 286 | 3.2 | 6.4 | 0.00 | 0.00 | 0.00 | 40 | 1002.4 |
| 20260507052703 | 0 | 286 | 3.2 | 6.4 | 0.00 | 0.00 | 0.00 | 40 | 1002.4 |
| 20260507052234 | -1 | 271 | 3.2 | 6.4 | 0.00 | 0.00 | 0.00 | 41 | 1002.4 |
| 20260507051803 | -1 | 292 | 1.6 | 4.8 | 0.00 | 0.00 | 0.00 | 41 | 1002.4 |
| 20260507051734 | -1 | 299 | 1.6 | 4.8 | 0.00 | 0.00 | 0.00 | 41 | 1002.3 |
| 20260507051634 | -1 | 303 | 0.0 | 4.8 | 0.00 | 0.00 | 0.00 | 41 | 1002.3 |
| 20260507051234 | -1 | 320 | 1.6 | 4.8 | 0.00 | 0.00 | 0.00 | 41 | 1002.3 |
| 20260507050903 | -1 | 315 | 1.6 | 3.2 | 0.00 | 0.00 | 0.00 | 40 | 1002.3 |
| 20260507050734 | -2 | 180 | 0.0 | 1.6 | 0.00 | 0.00 | 0.00 | 39 | 1002.4 |
| 20260507050234 | -2 | 180 | 0.0 | 1.6 | 0.00 | 0.00 | 0.00 | 39 | 1002.4 |
| 20260507050005 | -2 | 180 | 0.0 | 1.6 | 0.00 | 0.00 | 0.00 | 39 | 1002.4 |
| 20260507045734 | -2 | 0 | 0.0 | 0.0 | 0.00 | 0.00 | 0.00 | 39 | 1002.4 |
| 20260507045634 | -2 | 0 | 0.0 | 0.0 | 0.00 | 0.00 | 0.00 | 39 | 1002.4 |
| 20260507045403 | -2 | 0 | 0.0 | 0.0 | 0.00 | 0.00 | 0.00 | 39 | 1002.3 |
| 20260507045235 | -2 | 0 | 0.0 | 0.0 | 0.00 | 0.00 | 0.00 | 39 | 1002.4 |
| 20260507044734 | -2 | 0 | 0.0 | 0.0 | 0.00 | 0.00 | 0.00 | 39 | 1002.3 |
| 20260507044503 | -2 | 0 | 0.0 | 0.0 | 0.00 | 0.00 | 0.00 | 39 | 1002.3 |
| 20260507044234 | -2 | 0 | 0.0 | 0.0 | 0.00 | 0.00 | 0.00 | 39 | 1002.4 |
| 20260507043734 | -3 | 0 | 0.0 | 0.0 | 0.00 | 0.00 | 0.00 | 38 | 1002.3 |
| 20260507043603 | -3 | 0 | 0.0 | 0.0 | 0.00 | 0.00 | 0.00 | 38 | 1002.3 |
| 20260507043217 | -3 | 0 | 0.0 | 0.0 | 0.00 | 0.00 | 0.00 | 38 | 1002.3 |
| 20260507034504 | -4 | 0 | 0.0 | 0.0 | 0.00 | 0.00 | 0.00 | 36 | 1002.2 |
| 20260507034438 | -4 | 0 | 0.0 | 0.0 | 0.00 | 0.00 | 0.00 | 37 | 1002.2 |
| 20260507033938 | -4 | 0 | 0.0 | 0.0 | 0.00 | 0.00 | 0.00 | 37 | 1002.2 |
| 20260507033603 | -5 | 0 | 0.0 | 0.0 | 0.00 | 0.00 | 0.00 | 36 | 1002.2 |
| 20260507033438 | -5 | 0 | 0.0 | 0.0 | 0.00 | 0.00 | 0.00 | 36 | 1002.2 |
| 20260507032938 | -5 | 0 | 0.0 | 0.0 | 0.00 | 0.00 | 0.00 | 36 | 1002.2 |
| 20260507032720 | -5 | 0 | 0.0 | 0.0 | 0.00 | 0.00 | 0.00 | 35 | 1002.1 |
| 20260507032703 | -5 | 0 | 0.0 | 0.0 | 0.00 | 0.00 | 0.00 | 35 | 1002.1 |
| 20260507032438 | -5 | 0 | 0.0 | 0.0 | 0.00 | 0.00 | 0.00 | 35 | 1002.1 |
| 20260507031938 | -5 | 0 | 0.0 | 0.0 | 0.00 | 0.00 | 0.00 | 35 | 1002.1 |
| 20260507031803 | -5 | 0 | 0.0 | 0.0 | 0.00 | 0.00 | 0.00 | 35 | 1002.0 |
| 20260507031438 | -5 | 0 | 0.0 | 0.0 | 0.00 | 0.00 | 0.00 | 35 | 1002.1 |
| 20260507030939 | -5 | 0 | 0.0 | 0.0 | 0.00 | 0.00 | 0.00 | 35 | 1002.1 |
| 20260507030903 | -5 | 0 | 0.0 | 0.0 | 0.00 | 0.00 | 0.00 | 35 | 1002.0 |
| 20260507030721 | -5 | 0 | 0.0 | 0.0 | 0.00 | 0.00 | 0.00 | 35 | 1002.0 |
| 20260507030439 | -5 | 0 | 0.0 | 0.0 | 0.00 | 0.00 | 0.00 | 35 | 1002.1 |
| 20260507030003 | -5 | 0 | 0.0 | 0.0 | 0.00 | 0.00 | 0.00 | 35 | 1002.0 |
| 20260507025939 | -5 | 0 | 0.0 | 0.0 | 0.00 | 0.00 | 0.00 | 35 | 1002.0 |
| 20260507025439 | -5 | 0 | 0.0 | 0.0 | 0.00 | 0.00 | 0.00 | 35 | 1001.9 |
| 20260507025403 | -5 | 0 | 0.0 | 0.0 | 0.00 | 0.00 | 0.00 | 35 | 1001.9 |
| 20260507024939 | -5 | 0 | 0.0 | 0.0 | 0.00 | 0.00 | 0.00 | 35 | 1001.9 |
| 20260507024721 | -5 | 0 | 0.0 | 0.0 | 0.00 | 0.00 | 0.00 | 35 | 1001.8 |
| 20260507024503 | -5 | 0 | 0.0 | 0.0 | 0.00 | 0.00 | 0.00 | 35 | 1001.9 |
| 20260507024439 | -5 | 0 | 0.0 | 0.0 | 0.00 | 0.00 | 0.00 | 35 | 1001.8 |
| 20260507023939 | -5 | 0 | 0.0 | 0.0 | 0.00 | 0.00 | 0.00 | 35 | 1001.8 |
| 20260507023603 | -5 | 0 | 0.0 | 0.0 | 0.00 | 0.00 | 0.00 | 35 | 1001.8 |
| 20260507023439 | -5 | 0 | 0.0 | 0.0 | 0.00 | 0.00 | 0.00 | 34 | 1001.8 |
| 20260507022939 | -5 | 0 | 0.0 | 0.0 | 0.00 | 0.00 | 0.00 | 34 | 1001.8 |
| 20260507022721 | -5 | 0 | 0.0 | 0.0 | 0.00 | 0.00 | 0.00 | 34 | 1001.7 |
| 20260507022703 | -5 | 0 | 0.0 | 0.0 | 0.00 | 0.00 | 0.00 | 34 | 1001.7 |
| 20260507022439 | -5 | 0 | 0.0 | 0.0 | 0.00 | 0.00 | 0.00 | 34 | 1001.6 |
| 20260507021939 | -5 | 0 | 0.0 | 0.0 | 0.00 | 0.00 | 0.00 | 34 | 1001.8 |
| 20260507021803 | -5 | 0 | 0.0 | 0.0 | 0.00 | 0.00 | 0.00 | 34 | 1001.8 |
| 20260507021439 | -5 | 0 | 0.0 | 0.0 | 0.00 | 0.00 | 0.00 | 34 | 1001.8 |
| 20260507020939 | -5 | 0 | 0.0 | 0.0 | 0.00 | 0.00 | 0.00 | 34 | 1001.7 |
| 20260507020904 | -5 | 0 | 0.0 | 0.0 | 0.00 | 0.00 | 0.00 | 34 | 1001.7 |
| 20260507020721 | -5 | 0 | 0.0 | 0.0 | 0.00 | 0.00 | 0.00 | 34 | 1001.6 |
| 20260507020439 | -5 | 0 | 0.0 | 0.0 | 0.00 | 0.00 | 0.00 | 34 | 1001.8 |
| 20260507020003 | -5 | 0 | 0.0 | 0.0 | 0.00 | 0.00 | 0.00 | 34 | 1001.6 |
| 20260507015939 | -5 | 0 | 0.0 | 0.0 | 0.00 | 0.00 | 0.00 | 34 | 1001.7 |
| 20260507015439 | -5 | 0 | 0.0 | 0.0 | 0.00 | 0.00 | 0.00 | 34 | 1001.6 |
| 20260507015403 | -5 | 0 | 0.0 | 0.0 | 0.00 | 0.00 | 0.00 | 34 | 1001.6 |
| 20260507014939 | -5 | 0 | 0.0 | 0.0 | 0.00 | 0.00 | 0.00 | 33 | 1001.6 |
| 20260507014721 | -5 | 0 | 0.0 | 0.0 | 0.00 | 0.00 | 0.00 | 34 | 1001.7 |
| 20260507014503 | -5 | 0 | 0.0 | 0.0 | 0.00 | 0.00 | 0.00 | 34 | 1001.7 |
| 20260507014439 | -5 | 0 | 0.0 | 0.0 | 0.00 | 0.00 | 0.00 | 33 | 1001.7 |
| 20260507013939 | -5 | 0 | 0.0 | 0.0 | 0.00 | 0.00 | 0.00 | 33 | 1001.6 |
| 20260507013603 | -5 | 0 | 0.0 | 0.0 | 0.00 | 0.00 | 0.00 | 34 | 1001.7 |
| 20260507013438 | -5 | 0 | 0.0 | 0.0 | 0.00 | 0.00 | 0.00 | 34 | 1001.5 |
| 20260507012938 | -5 | 0 | 0.0 | 0.0 | 0.00 | 0.00 | 0.00 | 34 | 1001.6 |
| 20260507012720 | -5 | 0 | 0.0 | 0.0 | 0.00 | 0.00 | 0.00 | 34 | 1001.6 |
| 20260507012704 | -5 | 0 | 0.0 | 0.0 | 0.00 | 0.00 | 0.00 | 34 | 1001.6 |
| 20260507012438 | -4 | 0 | 0.0 | 0.0 | 0.00 | 0.00 | 0.00 | 34 | 1001.6 |
| 20260507011938 | -4 | 0 | 0.0 | 0.0 | 0.00 | 0.00 | 0.00 | 34 | 1001.5 |
| 20260507011803 | -4 | 0 | 0.0 | 0.0 | 0.00 | 0.00 | 0.00 | 34 | 1001.5 |
| 20260507011438 | -4 | 0 | 0.0 | 0.0 | 0.00 | 0.00 | 0.00 | 34 | 1001.6 |
| 20260507010938 | -4 | 0 | 0.0 | 0.0 | 0.00 | 0.00 | 0.00 | 34 | 1001.4 |
| 20260507010903 | -4 | 0 | 0.0 | 0.0 | 0.00 | 0.00 | 0.00 | 34 | 1001.4 |
| 20260507010720 | -4 | 0 | 0.0 | 0.0 | 0.00 | 0.00 | 0.00 | 33 | 1001.4 |
| 20260507010438 | -4 | 0 | 0.0 | 0.0 | 0.00 | 0.00 | 0.00 | 33 | 1001.5 |
| 20260507010003 | -4 | 0 | 0.0 | 0.0 | 0.00 | 0.00 | 0.00 | 33 | 1001.4 |
| 20260507005938 | -4 | 0 | 0.0 | 0.0 | 0.00 | 0.00 | 0.00 | 33 | 1001.4 |
| 20260507005438 | -4 | 180 | 0.0 | 1.6 | 0.00 | 0.00 | 0.00 | 33 | 1001.4 |
| 20260507005403 | -4 | 180 | 0.0 | 1.6 | 0.00 | 0.00 | 0.00 | 33 | 1001.4 |
| 20260507004938 | -4 | 180 | 0.0 | 1.6 | 0.00 | 0.00 | 0.00 | 33 | 1001.3 |
| 20260507004720 | -4 | 180 | 0.0 | 1.6 | 0.00 | 0.00 | 0.00 | 33 | 1001.4 |
| 20260507004503 | -4 | 180 | 0.0 | 1.6 | 0.00 | 0.00 | 0.00 | 33 | 1001.4 |
| 20260507004438 | -4 | 180 | 0.0 | 1.6 | 0.00 | 0.00 | 0.00 | 33 | 1001.4 |
| 20260507003938 | -4 | 0 | 0.0 | 0.0 | 0.00 | 0.00 | 0.00 | 33 | 1001.4 |
| 20260507003603 | -4 | 0 | 0.0 | 0.0 | 0.00 | 0.00 | 0.00 | 33 | 1001.3 |
| 20260507003438 | -4 | 0 | 0.0 | 0.0 | 0.00 | 0.00 | 0.00 | 33 | 1001.3 |
| 20260507002938 | -4 | 0 | 0.0 | 0.0 | 0.00 | 0.00 | 0.00 | 33 | 1001.4 |
| 20260507002720 | -4 | 0 | 0.0 | 0.0 | 0.00 | 0.00 | 0.00 | 33 | 1001.2 |
| 20260507002703 | -4 | 0 | 0.0 | 0.0 | 0.00 | 0.00 | 0.00 | 33 | 1001.2 |
| 20260507002438 | -4 | 0 | 0.0 | 0.0 | 0.00 | 0.00 | 0.00 | 33 | 1001.2 |
| 20260507001938 | -4 | 0 | 0.0 | 0.0 | 0.00 | 0.00 | 0.00 | 33 | 1001.2 |
| 20260507001803 | -4 | 0 | 0.0 | 0.0 | 0.00 | 0.00 | 0.00 | 33 | 1001.2 |
| 20260507001438 | -4 | 0 | 0.0 | 0.0 | 0.00 | 0.00 | 0.00 | 33 | 1001.1 |
| 20260507000938 | -4 | 0 | 0.0 | 0.0 | 0.00 | 0.00 | 0.00 | 32 | 1001.2 |
| 20260507000903 | -4 | 0 | 0.0 | 0.0 | 0.00 | 0.00 | 0.00 | 32 | 1001.2 |
| 20260507000720 | -4 | 0 | 0.0 | 0.0 | 0.00 | 0.00 | 0.00 | 32 | 1001.2 |
| 20260507000438 | -4 | 0 | 0.0 | 0.0 | 0.00 | 0.00 | 0.00 | 32 | 1001.1 |
| 20260507000003 | -4 | 0 | 0.0 | 0.0 | 0.00 | 0.00 | 0.00 | 32 | 1001.2 |
| 20260506235939 | -4 | 0 | 0.0 | 0.0 | 0.00 | 0.00 | 0.00 | 32 | 1001.1 |
| 20260506235438 | -3 | 270 | 0.0 | 1.6 | 0.00 | 0.00 | 0.00 | 32 | 1001.1 |
| 20260506235403 | -3 | 270 | 0.0 | 1.6 | 0.00 | 0.00 | 0.00 | 32 | 1001.1 |
| 20260506234938 | -3 | 270 | 0.0 | 1.6 | 0.00 | 0.00 | 0.00 | 32 | 1001.1 |
| 20260506234720 | -3 | 270 | 0.0 | 1.6 | 0.00 | 0.00 | 0.00 | 32 | 1001.1 |
| 20260506234504 | -3 | 270 | 0.0 | 1.6 | 0.00 | 0.00 | 0.00 | 32 | 1001.1 |
| 20260506234438 | -3 | 0 | 0.0 | 0.0 | 0.00 | 0.00 | 0.00 | 32 | 1001.1 |
| 20260506233938 | -3 | 0 | 0.0 | 0.0 | 0.00 | 0.00 | 0.00 | 32 | 1001.0 |
| 20260506233603 | -3 | 0 | 0.0 | 0.0 | 0.00 | 0.00 | 0.00 | 32 | 1001.0 |
| 20260506233438 | -3 | 0 | 0.0 | 0.0 | 0.00 | 0.00 | 0.00 | 32 | 1000.9 |
| 20260506232938 | -3 | 0 | 0.0 | 0.0 | 0.00 | 0.00 | 0.00 | 32 | 1001.0 |
| 20260506232720 | -3 | 0 | 0.0 | 0.0 | 0.00 | 0.00 | 0.00 | 32 | 1001.0 |
| 20260506232703 | -3 | 0 | 0.0 | 0.0 | 0.00 | 0.00 | 0.00 | 32 | 1001.0 |
| 20260506232438 | -3 | 0 | 0.0 | 0.0 | 0.00 | 0.00 | 0.00 | 31 | 1000.9 |
| 20260506231938 | -3 | 0 | 0.0 | 0.0 | 0.00 | 0.00 | 0.00 | 32 | 1000.9 |
| 20260506231803 | -3 | 0 | 0.0 | 0.0 | 0.00 | 0.00 | 0.00 | 32 | 1000.8 |
| 20260506231438 | -3 | 0 | 0.0 | 0.0 | 0.00 | 0.00 | 0.00 | 31 | 1000.7 |
| 20260506230938 | -3 | 0 | 0.0 | 0.0 | 0.00 | 0.00 | 0.00 | 31 | 1000.9 |
| 20260506230904 | -3 | 0 | 0.0 | 0.0 | 0.00 | 0.00 | 0.00 | 31 | 1000.9 |
| 20260506230720 | -3 | 0 | 0.0 | 0.0 | 0.00 | 0.00 | 0.00 | 31 | 1000.9 |
| 20260506230438 | -3 | 0 | 0.0 | 0.0 | 0.00 | 0.00 | 0.00 | 31 | 1000.8 |
| 20260506230003 | -3 | 0 | 0.0 | 0.0 | 0.00 | 0.00 | 0.00 | 31 | 1000.8 |
| 20260506225938 | -3 | 0 | 0.0 | 0.0 | 0.00 | 0.00 | 0.00 | 31 | 1000.8 |
| 20260506225438 | -3 | 0 | 0.0 | 0.0 | 0.00 | 0.00 | 0.00 | 30 | 1000.9 |
| 20260506225403 | -3 | 0 | 0.0 | 0.0 | 0.00 | 0.00 | 0.00 | 30 | 1000.9 |
| 20260506224938 | -3 | 0 | 0.0 | 0.0 | 0.00 | 0.00 | 0.00 | 30 | 1000.6 |
| 20260506224720 | -3 | 0 | 0.0 | 0.0 | 0.00 | 0.00 | 0.00 | 30 | 1000.8 |
| 20260506224503 | -3 | 0 | 0.0 | 0.0 | 0.00 | 0.00 | 0.00 | 30 | 1000.7 |
| 20260506224438 | -3 | 0 | 0.0 | 0.0 | 0.00 | 0.00 | 0.00 | 30 | 1000.7 |
| 20260506223938 | -3 | 270 | 0.0 | 3.2 | 0.00 | 0.00 | 0.00 | 30 | 1000.7 |
| 20260506223603 | -3 | 270 | 0.0 | 3.2 | 0.00 | 0.00 | 0.00 | 30 | 1000.6 |
| 20260506223438 | -3 | 270 | 0.0 | 3.2 | 0.00 | 0.00 | 0.00 | 30 | 1000.6 |
| 20260506222938 | -3 | 270 | 1.6 | 3.2 | 0.00 | 0.00 | 0.00 | 29 | 1000.7 |
| 20260506222722 | -3 | 0 | 0.0 | 0.0 | 0.00 | 0.00 | 0.00 | 28 | 1000.7 |
| 20260506222703 | -3 | 0 | 0.0 | 0.0 | 0.00 | 0.00 | 0.00 | 28 | 1000.7 |
| 20260506222438 | -3 | 0 | 0.0 | 0.0 | 0.00 | 0.00 | 0.00 | 28 | 1000.7 |
| 20260506221939 | -3 | 0 | 0.0 | 0.0 | 0.00 | 0.00 | 0.00 | 28 | 1000.6 |
| 20260506221803 | -3 | 270 | 0.0 | 1.6 | 0.00 | 0.00 | 0.00 | 28 | 1000.6 |
| 20260506221439 | -2 | 270 | 0.0 | 1.6 | 0.00 | 0.00 | 0.00 | 28 | 1000.5 |
| 20260506220939 | -2 | 270 | 0.0 | 1.6 | 0.00 | 0.00 | 0.00 | 28 | 1000.6 |
| 20260506220903 | -2 | 270 | 0.0 | 1.6 | 0.00 | 0.00 | 0.00 | 28 | 1000.6 |
| 20260506220721 | -2 | 0 | 0.0 | 0.0 | 0.00 | 0.00 | 0.00 | 27 | 1000.5 |
| 20260506220439 | -2 | 0 | 0.0 | 0.0 | 0.00 | 0.00 | 0.00 | 27 | 1000.4 |
| 20260506220003 | -2 | 0 | 0.0 | 0.0 | 0.00 | 0.00 | 0.00 | 27 | 1000.5 |
| 20260506215939 | -2 | 270 | 0.0 | 1.6 | 0.00 | 0.00 | 0.00 | 27 | 1000.4 |
| 20260506215439 | -2 | 270 | 0.0 | 3.2 | 0.00 | 0.00 | 0.00 | 26 | 1000.3 |
| 20260506215403 | -2 | 270 | 0.0 | 3.2 | 0.00 | 0.00 | 0.00 | 26 | 1000.3 |
| 20260506214939 | -2 | 270 | 0.0 | 3.2 | 0.00 | 0.00 | 0.00 | 25 | 1000.4 |
| 20260506214721 | -2 | 270 | 0.0 | 3.2 | 0.00 | 0.00 | 0.00 | 25 | 1000.4 |
| 20260506214503 | -2 | 270 | 0.0 | 3.2 | 0.00 | 0.00 | 0.00 | 25 | 1000.4 |
| 20260506214439 | -2 | 270 | 0.0 | 3.2 | 0.00 | 0.00 | 0.00 | 25 | 1000.4 |
| 20260506213939 | -2 | 270 | 0.0 | 3.2 | 0.00 | 0.00 | 0.00 | 24 | 1000.4 |
| 20260506213603 | -2 | 270 | 0.0 | 3.2 | 0.00 | 0.00 | 0.00 | 24 | 1000.3 |
| 20260506213439 | -2 | 270 | 0.0 | 3.2 | 0.00 | 0.00 | 0.00 | 24 | 1000.2 |
| 20260506212939 | -2 | 270 | 3.2 | 3.2 | 0.00 | 0.00 | 0.00 | 22 | 1000.2 |
| 20260506212721 | -2 | 270 | 1.6 | 3.2 | 0.00 | 0.00 | 0.00 | 21 | 1000.3 |
| 20260506212703 | -2 | 270 | 1.6 | 3.2 | 0.00 | 0.00 | 0.00 | 21 | 1000.3 |
| 20260506212439 | -2 | 0 | 0.0 | 0.0 | 0.00 | 0.00 | 0.00 | 21 | 1000.2 |
| 20260506211939 | -2 | 270 | 0.0 | 3.2 | 0.00 | 0.00 | 0.00 | 20 | 1000.2 |
| 20260506211803 | -2 | 270 | 0.0 | 3.2 | 0.00 | 0.00 | 0.00 | 20 | 1000.1 |
| 20260506211439 | -2 | 270 | 0.0 | 3.2 | 0.00 | 0.00 | 0.00 | 20 | 1000.1 |
| 20260506210939 | -2 | 0 | 0.0 | 0.0 | 0.00 | 0.00 | 0.00 | 18 | 1000.1 |
| 20260506210903 | -2 | 0 | 0.0 | 0.0 | 0.00 | 0.00 | 0.00 | 18 | 1000.1 |
| 20260506210721 | -2 | 270 | 0.0 | 1.6 | 0.00 | 0.00 | 0.00 | 18 | 1000.1 |
| 20260506210439 | -2 | 270 | 0.0 | 3.2 | 0.00 | 0.00 | 0.00 | 18 | 1000.1 |
| 20260506210003 | -2 | 270 | 0.0 | 3.2 | 0.00 | 0.00 | 0.00 | 18 | 1000.0 |
| 20260506205939 | -2 | 270 | 0.0 | 3.2 | 0.00 | 0.00 | 0.00 | 18 | 1000.0 |
| 20260506205440 | -2 | 270 | 1.6 | 3.2 | 0.00 | 0.00 | 0.00 | 17 | 1000.1 |
| 20260506205403 | -2 | 270 | 1.6 | 3.2 | 0.00 | 0.00 | 0.00 | 16 | 1000.1 |
| 20260506204940 | -2 | 270 | 0.0 | 1.6 | 0.00 | 0.00 | 0.00 | 14 | 1000.2 |
| 20260506204722 | -2 | 270 | 0.0 | 1.6 | 0.00 | 0.00 | 0.00 | 13 | 1000.1 |
| 20260506204503 | -2 | 270 | 0.0 | 1.6 | 0.00 | 0.00 | 0.00 | 13 | 1000.1 |
| 20260506204440 | -2 | 270 | 0.0 | 1.6 | 0.00 | 0.00 | 0.00 | 12 | 1000.0 |
| 20260506203940 | -2 | 0 | 0.0 | 0.0 | 0.00 | 0.00 | 0.00 | 11 | 1000.0 |
| 20260506203603 | -2 | 0 | 0.0 | 0.0 | 0.00 | 0.00 | 0.00 | 11 | 1000.1 |
| 20260506203440 | -2 | 0 | 0.0 | 0.0 | 0.00 | 0.00 | 0.00 | 11 | 1000.2 |
| 20260506202940 | -1 | 0 | 0.0 | 0.0 | 0.00 | 0.00 | 0.00 | 12 | 1000.2 |
| 20260506202722 | -1 | 0 | 0.0 | 0.0 | 0.00 | 0.00 | 0.00 | 11 | 1000.0 |
| 20260506202704 | -1 | 0 | 0.0 | 0.0 | 0.00 | 0.00 | 0.00 | 11 | 1000.0 |
| 20260506202440 | -1 | 0 | 0.0 | 0.0 | 0.00 | 0.00 | 0.00 | 10 | 1000.0 |
| 20260506201940 | -1 | 270 | 0.0 | 1.6 | 0.00 | 0.00 | 0.00 | 11 | 1000.1 |
| 20260506201803 | -1 | 270 | 0.0 | 1.6 | 0.00 | 0.00 | 0.00 | 11 | 1000.1 |
| 20260506201440 | -1 | 270 | 0.0 | 1.6 | 0.00 | 0.00 | 0.00 | 11 | 1000.0 |
| 20260506200940 | -1 | 270 | 0.0 | 1.6 | 0.00 | 0.00 | 0.00 | 11 | 1000.2 |
| 20260506200903 | -1 | 270 | 0.0 | 1.6 | 0.00 | 0.00 | 0.00 | 11 | 1000.2 |
| 20260506200722 | -1 | 0 | 0.0 | 0.0 | 0.00 | 0.00 | 0.00 | 11 | 1000.0 |
| 20260506200440 | -1 | 0 | 0.0 | 0.0 | 0.00 | 0.00 | 0.00 | 11 | 1000.1 |
| 20260506200003 | -1 | 0 | 0.0 | 0.0 | 0.00 | 0.00 | 0.00 | 11 | 1000.0 |
| 20260506195940 | -1 | 0 | 0.0 | 0.0 | 0.00 | 0.00 | 0.00 | 11 | 1000.0 |
| 20260506195440 | -1 | 0 | 0.0 | 0.0 | 0.00 | 0.00 | 0.00 | 11 | 1000.0 |
| 20260506195403 | 0 | 0 | 0.0 | 0.0 | 0.00 | 0.00 | 0.00 | 11 | 1000.0 |
| 20260506194940 | 0 | 0 | 0.0 | 0.0 | 0.00 | 0.00 | 0.00 | 11 | 999.9 |
| 20260506194722 | 0 | 0 | 0.0 | 0.0 | 0.00 | 0.00 | 0.00 | 11 | 999.9 |
| 20260506194503 | 0 | 0 | 0.0 | 0.0 | 0.00 | 0.00 | 0.00 | 11 | 999.9 |
| 20260506194440 | 0 | 270 | 0.0 | 3.2 | 0.00 | 0.00 | 0.00 | 11 | 999.9 |
| 20260506193940 | 0 | 270 | 0.0 | 3.2 | 0.00 | 0.00 | 0.00 | 11 | 1000.0 |
| 20260506193604 | 0 | 270 | 0.0 | 3.2 | 0.00 | 0.00 | 0.00 | 11 | 999.9 |
| 20260506193440 | 0 | 270 | 0.0 | 3.2 | 0.00 | 0.00 | 0.00 | 11 | 999.9 |
| 20260506192939 | 0 | 270 | 0.0 | 3.2 | 0.00 | 0.00 | 0.00 | 11 | 999.8 |
| 20260506192722 | 0 | 270 | 0.0 | 3.2 | 0.00 | 0.00 | 0.00 | 11 | 999.8 |
| 20260506192703 | 0 | 270 | 0.0 | 3.2 | 0.00 | 0.00 | 0.00 | 11 | 999.8 |
| 20260506192440 | 0 | 270 | 0.0 | 3.2 | 0.00 | 0.00 | 0.00 | 11 | 999.8 |
| 20260506191940 | 1 | 270 | 0.0 | 3.2 | 0.00 | 0.00 | 0.00 | 11 | 999.7 |
| 20260506191803 | 1 | 270 | 0.0 | 3.2 | 0.00 | 0.00 | 0.00 | 11 | 999.7 |
| 20260506191440 | 1 | 270 | 0.0 | 3.2 | 0.00 | 0.00 | 0.00 | 11 | 999.7 |
| 20260506190940 | 1 | 0 | 0.0 | 0.0 | 0.00 | 0.00 | 0.00 | 11 | 999.7 |
| 20260506190903 | 1 | 0 | 0.0 | 0.0 | 0.00 | 0.00 | 0.00 | 11 | 999.7 |
| 20260506190722 | 1 | 270 | 0.0 | 1.6 | 0.00 | 0.00 | 0.00 | 11 | 999.7 |
| 20260506190440 | 1 | 270 | 0.0 | 3.2 | 0.00 | 0.00 | 0.00 | 11 | 999.7 |
| 20260506190003 | 1 | 270 | 0.0 | 3.2 | 0.00 | 0.00 | 0.00 | 11 | 999.6 |
| 20260506185939 | 1 | 270 | 0.0 | 3.2 | 0.00 | 0.00 | 0.00 | 11 | 999.7 |
| 20260506185439 | 1 | 270 | 0.0 | 3.2 | 0.00 | 0.00 | 0.00 | 11 | 999.7 |
| 20260506185403 | 1 | 270 | 0.0 | 3.2 | 0.00 | 0.00 | 0.00 | 11 | 999.7 |
| 20260506184939 | 2 | 270 | 0.0 | 1.6 | 0.00 | 0.00 | 0.00 | 11 | 999.6 |
| 20260506184721 | 2 | 0 | 0.0 | 0.0 | 0.00 | 0.00 | 0.00 | 11 | 999.7 |
| 20260506184504 | 1 | 270 | 0.0 | 1.6 | 0.00 | 0.00 | 0.00 | 11 | 999.6 |
| 20260506184439 | 2 | 270 | 0.0 | 3.2 | 0.00 | 0.00 | 0.00 | 11 | 999.7 |
| 20260506183939 | 1 | 242 | 0.0 | 3.2 | 0.00 | 0.00 | 0.00 | 11 | 999.5 |
| 20260506183603 | 1 | 242 | 0.0 | 3.2 | 0.00 | 0.00 | 0.00 | 11 | 999.6 |
| 20260506183439 | 1 | 228 | 3.2 | 3.2 | 0.00 | 0.00 | 0.00 | 11 | 999.6 |
| 20260506182939 | 1 | 180 | 0.0 | 3.2 | 0.00 | 0.00 | 0.00 | 11 | 999.6 |
| 20260506182721 | 1 | 180 | 0.0 | 3.2 | 0.00 | 0.00 | 0.00 | 11 | 999.6 |
| 20260506182703 | 1 | 180 | 0.0 | 3.2 | 0.00 | 0.00 | 0.00 | 11 | 999.6 |
| 20260506182439 | 1 | 180 | 0.0 | 3.2 | 0.00 | 0.00 | 0.00 | 11 | 999.5 |
| 20260506181939 | 2 | 137 | 0.0 | 3.2 | 0.00 | 0.00 | 0.00 | 11 | 999.5 |
| 20260506181803 | 2 | 122 | 0.0 | 3.2 | 0.00 | 0.00 | 0.00 | 11 | 999.5 |
| 20260506181439 | 2 | 37 | 0.0 | 6.4 | 0.00 | 0.00 | 0.00 | 11 | 999.4 |
| 20260506180939 | 2 | 28 | 0.0 | 11.3 | 0.00 | 0.00 | 0.00 | 11 | 999.4 |
| 20260506180903 | 2 | 28 | 0.0 | 11.3 | 0.00 | 0.00 | 0.00 | 11 | 999.4 |
| 20260506180720 | 2 | 25 | 0.0 | 11.3 | 0.00 | 0.00 | 0.00 | 11 | 999.4 |
| 20260506180438 | 2 | 12 | 4.8 | 12.9 | 0.00 | 0.00 | 0.00 | 11 | 999.4 |
| 20260506180004 | 2 | 7 | 3.2 | 17.7 | 0.00 | 0.00 | 0.00 | 11 | 999.3 |
| 20260506175938 | 2 | 3 | 3.2 | 17.7 | 0.00 | 0.00 | 0.00 | 11 | 999.4 |
| 20260506175438 | 2 | 4 | 6.4 | 17.7 | 0.00 | 0.00 | 0.00 | 11 | 999.3 |
| 20260506175403 | 2 | 4 | 6.4 | 17.7 | 0.00 | 0.00 | 0.00 | 11 | 999.3 |
| 20260506174938 | 2 | 355 | 6.4 | 14.5 | 0.00 | 0.00 | 0.00 | 11 | 999.4 |
| 20260506174720 | 2 | 358 | 4.8 | 14.5 | 0.00 | 0.00 | 0.00 | 11 | 999.3 |
| 20260506174503 | 2 | 344 | 9.7 | 14.5 | 0.00 | 0.00 | 0.00 | 11 | 999.4 |
| 20260506174438 | 2 | 339 | 6.4 | 12.9 | 0.00 | 0.00 | 0.00 | 11 | 999.4 |
| 20260506173938 | 2 | 350 | 6.4 | 17.7 | 0.00 | 0.00 | 0.00 | 11 | 999.3 |
| 20260506173603 | 2 | 348 | 6.4 | 17.7 | 0.00 | 0.00 | 0.00 | 11 | 999.3 |
| 20260506173438 | 3 | 346 | 11.3 | 17.7 | 0.00 | 0.00 | 0.00 | 11 | 999.4 |
| 20260506172938 | 3 | 324 | 4.8 | 11.3 | 0.00 | 0.00 | 0.00 | 11 | 999.2 |
| 20260506172720 | 3 | 310 | 3.2 | 11.3 | 0.00 | 0.00 | 0.00 | 11 | 999.2 |
| 20260506172703 | 3 | 309 | 3.2 | 11.3 | 0.00 | 0.00 | 0.00 | 11 | 999.2 |
| 20260506172438 | 3 | 290 | 6.4 | 11.3 | 0.00 | 0.00 | 0.00 | 11 | 999.3 |
| 20260506171938 | 3 | 253 | 3.2 | 6.4 | 0.00 | 0.00 | 0.00 | 11 | 999.2 |
| 20260506171803 | 3 | 251 | 1.6 | 6.4 | 0.00 | 0.00 | 0.00 | 11 | 999.1 |
| 20260506171438 | 2 | 208 | 1.6 | 16.1 | 0.00 | 0.00 | 0.00 | 11 | 999.0 |
| 20260506170938 | 2 | 205 | 0.0 | 16.1 | 0.00 | 0.00 | 0.00 | 11 | 998.9 |
| 20260506170903 | 2 | 205 | 0.0 | 16.1 | 0.00 | 0.00 | 0.00 | 11 | 998.9 |
| 20260506170721 | 2 | 207 | 1.6 | 16.1 | 0.00 | 0.00 | 0.00 | 11 | 998.9 |
| 20260506170439 | 2 | 207 | 11.3 | 16.1 | 0.00 | 0.00 | 0.00 | 11 | 998.9 |
| 20260506170003 | 2 | 227 | 11.3 | 19.3 | 0.00 | 0.00 | 0.00 | 11 | 998.9 |
| 20260506165939 | 2 | 224 | 6.4 | 19.3 | 0.00 | 0.00 | 0.00 | 11 | 999.1 |
| 20260506165439 | 2 | 266 | 6.4 | 19.3 | 0.00 | 0.00 | 0.00 | 11 | 999.2 |
| 20260506165403 | 2 | 266 | 6.4 | 19.3 | 0.00 | 0.00 | 0.00 | 11 | 999.2 |
| 20260506164939 | 2 | 305 | 9.7 | 17.7 | 0.00 | 0.00 | 0.00 | 11 | 999.0 |
| 20260506164721 | 3 | 306 | 6.4 | 17.7 | 0.00 | 0.00 | 0.00 | 11 | 999.0 |
| 20260506164503 | 3 | 304 | 6.4 | 17.7 | 0.00 | 0.00 | 0.00 | 11 | 999.0 |
| 20260506164439 | 3 | 306 | 1.6 | 17.7 | 0.00 | 0.00 | 0.00 | 11 | 999.0 |
| 20260506163939 | 3 | 276 | 6.4 | 17.7 | 0.00 | 0.00 | 0.00 | 11 | 999.0 |
| 20260506163603 | 3 | 285 | 6.4 | 14.5 | 0.00 | 0.00 | 0.00 | 11 | 999.0 |
| 20260506163439 | 3 | 284 | 6.4 | 14.5 | 0.00 | 0.00 | 0.00 | 11 | 998.9 |
| 20260506162939 | 3 | 294 | 3.2 | 12.9 | 0.00 | 0.00 | 0.00 | 11 | 998.9 |
| 20260506162721 | 3 | 297 | 3.2 | 12.9 | 0.00 | 0.00 | 0.00 | 11 | 998.7 |
| 20260506162703 | 3 | 296 | 3.2 | 12.9 | 0.00 | 0.00 | 0.00 | 11 | 998.7 |
| 20260506162439 | 3 | 275 | 3.2 | 12.9 | 0.00 | 0.00 | 0.00 | 11 | 998.8 |
| 20260506161939 | 3 | 265 | 4.8 | 12.9 | 0.00 | 0.00 | 0.00 | 11 | 998.7 |
| 20260506161803 | 3 | 261 | 4.8 | 12.9 | 0.00 | 0.00 | 0.00 | 11 | 998.7 |
| 20260506161439 | 3 | 266 | 6.4 | 12.9 | 0.00 | 0.00 | 0.00 | 11 | 998.8 |
| 20260506160939 | 3 | 229 | 4.8 | 12.9 | 0.00 | 0.00 | 0.00 | 11 | 998.8 |
| 20260506160903 | 3 | 229 | 4.8 | 12.9 | 0.00 | 0.00 | 0.00 | 11 | 998.8 |
| 20260506160721 | 3 | 237 | 6.4 | 12.9 | 0.00 | 0.00 | 0.00 | 11 | 998.8 |
| 20260506160439 | 2 | 229 | 3.2 | 16.1 | 0.00 | 0.00 | 0.00 | 11 | 998.8 |
| 20260506160003 | 2 | 242 | 4.8 | 16.1 | 0.00 | 0.00 | 0.00 | 11 | 998.8 |
| 20260506155939 | 2 | 247 | 4.8 | 16.1 | 0.00 | 0.00 | 0.00 | 11 | 998.8 |
| 20260506155439 | 2 | 251 | 1.6 | 24.1 | 0.00 | 0.00 | 0.00 | 11 | 998.7 |
| 20260506155403 | 2 | 251 | 1.6 | 24.1 | 0.00 | 0.00 | 0.00 | 11 | 998.7 |
| 20260506154939 | 3 | 269 | 6.4 | 24.1 | 0.00 | 0.00 | 0.00 | 11 | 998.8 |
| 20260506154721 | 3 | 271 | 11.3 | 24.1 | 0.00 | 0.00 | 0.00 | 11 | 998.7 |
| 20260506154503 | 3 | 273 | 6.4 | 19.3 | 0.00 | 0.00 | 0.00 | 11 | 998.8 |
| 20260506154439 | 3 | 275 | 8.0 | 19.3 | 0.00 | 0.00 | 0.00 | 11 | 998.5 |
| 20260506153939 | 3 | 297 | 4.8 | 17.7 | 0.00 | 0.00 | 0.00 | 11 | 998.5 |
| 20260506153603 | 3 | 321 | 6.4 | 11.3 | 0.00 | 0.00 | 0.00 | 11 | 998.4 |
| 20260506153439 | 3 | 328 | 3.2 | 9.7 | 0.00 | 0.00 | 0.00 | 11 | 998.3 |
| 20260506152939 | 3 | 324 | 3.2 | 12.9 | 0.00 | 0.00 | 0.00 | 11 | 998.4 |
| 20260506152721 | 3 | 329 | 3.2 | 12.9 | 0.00 | 0.00 | 0.00 | 11 | 998.4 |
| 20260506152703 | 3 | 331 | 3.2 | 12.9 | 0.00 | 0.00 | 0.00 | 11 | 998.4 |
| 20260506152439 | 3 | 341 | 3.2 | 12.9 | 0.00 | 0.00 | 0.00 | 11 | 998.4 |
| 20260506151940 | 4 | 317 | 4.8 | 9.7 | 0.00 | 0.00 | 0.00 | 11 | 998.3 |
| 20260506151803 | 4 | 323 | 4.8 | 9.7 | 0.00 | 0.00 | 0.00 | 11 | 998.3 |
| 20260506151440 | 4 | 285 | 6.4 | 9.7 | 0.00 | 0.00 | 0.00 | 11 | 998.3 |
| 20260506150940 | 4 | 238 | 3.2 | 11.3 | 0.00 | 0.00 | 0.00 | 11 | 998.4 |
| 20260506150903 | 4 | 238 | 3.2 | 11.3 | 0.00 | 0.00 | 0.00 | 11 | 998.4 |
| 20260506150722 | 4 | 239 | 3.2 | 11.3 | 0.00 | 0.00 | 0.00 | 11 | 998.4 |
| 20260506150440 | 3 | 240 | 3.2 | 11.3 | 0.00 | 0.00 | 0.00 | 11 | 998.4 |
| 20260506150003 | 3 | 295 | 1.6 | 11.3 | 0.00 | 0.00 | 0.00 | 11 | 998.3 |
| 20260506145940 | 3 | 296 | 3.2 | 11.3 | 0.00 | 0.00 | 0.00 | 11 | 998.4 |
| 20260506145440 | 3 | 290 | 3.2 | 11.3 | 0.00 | 0.00 | 0.00 | 11 | 998.4 |
| 20260506145403 | 3 | 290 | 3.2 | 11.3 | 0.00 | 0.00 | 0.00 | 11 | 998.4 |
| 20260506144824 | 3 | 282 | 1.6 | 11.3 | 0.00 | 0.00 | 0.00 | 11 | 998.3 |
| 20260506144722 | 3 | 292 | 3.2 | 11.3 | 0.00 | 0.00 | 0.00 | 11 | 998.4 |
| 20260506144503 | 3 | 300 | 6.4 | 11.3 | 0.00 | 0.00 | 0.00 | 11 | 998.4 |
| 20260506144324 | 3 | 308 | 3.2 | 12.9 | 0.00 | 0.00 | 0.00 | 11 | 998.3 |
| 20260506143824 | 3 | 321 | 6.4 | 14.5 | 0.00 | 0.00 | 0.00 | 11 | 998.3 |
| 20260506143603 | 3 | 315 | 3.2 | 14.5 | 0.00 | 0.00 | 0.00 | 11 | 998.4 |
| 20260506143324 | 3 | 309 | 4.8 | 17.7 | 0.00 | 0.00 | 0.00 | 11 | 998.4 |
| 20260506142824 | 2 | 325 | 6.4 | 22.5 | 0.00 | 0.00 | 0.00 | 11 | 998.5 |
| 20260506142722 | 2 | 323 | 6.4 | 24.1 | 0.00 | 0.00 | 0.00 | 11 | 998.4 |
| 20260506142703 | 2 | 323 | 6.4 | 24.1 | 0.00 | 0.00 | 0.00 | 11 | 998.4 |
| 20260506142324 | 3 | 326 | 9.7 | 24.1 | 0.00 | 0.00 | 0.00 | 11 | 998.4 |
| 20260506141824 | 3 | 331 | 9.7 | 24.1 | 0.00 | 0.00 | 0.00 | 11 | 998.3 |
| 20260506141803 | 3 | 331 | 9.7 | 24.1 | 0.00 | 0.00 | 0.00 | 11 | 998.3 |
| 20260506141324 | 5 | 336 | 4.8 | 22.5 | 0.00 | 0.00 | 0.00 | 11 | 998.0 |
| 20260506140903 | 5 | 322 | 9.7 | 17.7 | 0.00 | 0.00 | 0.00 | 11 | 998.0 |
| 20260506140824 | 5 | 317 | 6.4 | 14.5 | 0.00 | 0.00 | 0.00 | 11 | 998.0 |
| 20260506140722 | 5 | 311 | 9.7 | 14.5 | 0.00 | 0.00 | 0.00 | 11 | 998.0 |
| 20260506140324 | 4 | 323 | 9.7 | 14.5 | 0.00 | 0.00 | 0.00 | 11 | 997.9 |
| 20260506140003 | 4 | 336 | 9.7 | 17.7 | 0.00 | 0.00 | 0.00 | 11 | 998.0 |
| 20260506135824 | 4 | 345 | 3.2 | 17.7 | 0.00 | 0.00 | 0.00 | 11 | 998.1 |
| 20260506135403 | 4 | 353 | 6.4 | 17.7 | 0.00 | 0.00 | 0.00 | 11 | 998.0 |
| 20260506135324 | 5 | 353 | 8.0 | 17.7 | 0.00 | 0.00 | 0.00 | 11 | 998.0 |
| 20260506134824 | 5 | 354 | 9.7 | 20.9 | 0.00 | 0.00 | 0.00 | 11 | 998.0 |
| 20260506134722 | 5 | 354 | 8.0 | 20.9 | 0.00 | 0.00 | 0.00 | 11 | 997.9 |
| 20260506134503 | 4 | 348 | 8.0 | 20.9 | 0.00 | 0.00 | 0.00 | 11 | 997.9 |
| 20260506134324 | 4 | 346 | 8.0 | 20.9 | 0.00 | 0.00 | 0.00 | 11 | 997.9 |
| 20260506133823 | 4 | 325 | 11.3 | 20.9 | 0.00 | 0.00 | 0.00 | 11 | 997.9 |
| 20260506133603 | 5 | 311 | 12.9 | 17.7 | 0.00 | 0.00 | 0.00 | 11 | 997.9 |
| 20260506133323 | 5 | 289 | 9.7 | 17.7 | 0.00 | 0.00 | 0.00 | 11 | 997.9 |
| 20260506132823 | 5 | 290 | 3.2 | 20.9 | 0.00 | 0.00 | 0.00 | 11 | 997.9 |
| 20260506132721 | 5 | 289 | 6.4 | 20.9 | 0.00 | 0.00 | 0.00 | 11 | 997.7 |
| 20260506132703 | 5 | 290 | 6.4 | 20.9 | 0.00 | 0.00 | 0.00 | 11 | 997.7 |
| 20260506132323 | 5 | 287 | 4.8 | 20.9 | 0.00 | 0.00 | 0.00 | 11 | 997.8 |
| 20260506131823 | 4 | 287 | 1.6 | 11.3 | 0.00 | 0.00 | 0.00 | 11 | 997.6 |
| 20260506131803 | 4 | 287 | 1.6 | 11.3 | 0.00 | 0.00 | 0.00 | 11 | 997.6 |
| 20260506131426 | 4 | 278 | 3.2 | 17.7 | 0.00 | 0.00 | 0.00 | 11 | 997.8 |
| 20260506130926 | 5 | 246 | 6.4 | 17.7 | 0.00 | 0.00 | 0.00 | 11 | 997.8 |
| 20260506130903 | 5 | 246 | 6.4 | 17.7 | 0.00 | 0.00 | 0.00 | 11 | 997.8 |
| 20260506130720 | 5 | 243 | 6.4 | 17.7 | 0.00 | 0.00 | 0.00 | 11 | 997.8 |
| 20260506130426 | 5 | 221 | 3.2 | 6.4 | 0.00 | 0.00 | 0.00 | 11 | 997.7 |
| 20260506130003 | 5 | 211 | 3.2 | 6.4 | 0.00 | 0.00 | 0.00 | 11 | 997.7 |
| 20260506125926 | 5 | 209 | 0.0 | 6.4 | 0.00 | 0.00 | 0.00 | 11 | 997.9 |
| 20260506125426 | 3 | 276 | 3.2 | 12.9 | 0.00 | 0.00 | 0.00 | 11 | 997.7 |
| 20260506125403 | 3 | 276 | 3.2 | 12.9 | 0.00 | 0.00 | 0.00 | 11 | 997.7 |
| 20260506124926 | 3 | 283 | 3.2 | 12.9 | 0.00 | 0.00 | 0.00 | 11 | 997.8 |
| 20260506124720 | 4 | 268 | 6.4 | 12.9 | 0.00 | 0.00 | 0.00 | 11 | 997.8 |
| 20260506124504 | 5 | 261 | 6.4 | 12.9 | 0.00 | 0.00 | 0.00 | 11 | 997.9 |
| 20260506124426 | 5 | 255 | 6.4 | 12.9 | 0.00 | 0.00 | 0.00 | 11 | 997.8 |
| 20260506123926 | 5 | 274 | 4.8 | 14.5 | 0.00 | 0.00 | 0.00 | 11 | 997.7 |